Kazan, Russia

5:04 AM MSK on December 07, 2019 (GMT +0300)
Kazan

Weather History for UWKD - October, 2019

Change the Weather History Date:

Tuesday, October 22, 2019

  Actual Average (WUND) Record (WUND)
Temperature  
Mean Temperature 46 °F -  
Max Temperature 54 °F - - (-1)
Min Temperature 35 °F - - (-1)
Degree Days  
Heating Degree Days 20    
Moisture  
Dew Point 39 °F    
Average Humidity 75    
Maximum Humidity 95    
Minimum Humidity 51    
Precipitation  
Precipitation 0.00 in - - ()
Sea Level Pressure  
Sea Level Pressure 30.05 in    
Wind  
Wind Speed 10 mph ()    
Max Wind Speed 18 mph    
Max Gust Speed 27 mph    
Visibility 6.0 miles    
Events Rain    
Averages and records for this station are not official NWS values.
T = Trace of Precipitation, MM = Missing Value Source: Averaged Metar Reports

Daily Weather History Graph

Daily Weather History Graph

Search for Another Location

Airport or City:

Astronomy

Oct. 22, 2019 Rise Set
Actual Time 6:26 AM MSK 4:27 PM MSK
Civil Twilight 5:48 AM MSK 5:04 PM MSK
Nautical Twilight 5:05 AM MSK 5:47 PM MSK
Astronomical Twilight 4:23 AM MSK 6:30 PM MSK
Moon 10:57 PM MSK (10/22) 2:44 PM MSK (10/22)
Length of Visible Light 11h 16m
Length of Day
10h 00m
Last Quarter, 40% of the Moon is Illuminated
Oct 22
Last Quarter
Oct 28
New
Nov 4
First Quarter
Nov 12
Full
Nov 20
Last Quarter

Hourly Weather History & Observations

Time (MSK) Temp. Windchill Dew Point Humidity Pressure Visibility Wind Dir Wind Speed Gust Speed Precip Events Conditions
12:00 AM 54 °F - 53 °F 95% 29.92 in 6 mi WSW 8.9 mph - - Rain Light Rain
12:00 AM 53.6 °F - 50.0 °F 88% 29.92 in 5.6 mi WSW 11.2 mph - N/A Rain Light Rain Showers
12:30 AM 53.6 °F - 50.0 °F 88% 29.92 in 5.0 mi WSW 15.7 mph - N/A Rain Light Rain Showers
1:00 AM 53.6 °F - 50.0 °F 88% 29.92 in 3.7 mi West 15.7 mph 26.8 mph N/A Rain Light Rain Showers
1:30 AM 53.6 °F - 50.0 °F 88% 29.92 in 5.0 mi West 11.2 mph - N/A Rain Light Rain Showers
2:00 AM 51.8 °F - 48.2 °F 88% 29.92 in 6.2 mi West 13.4 mph - N/A Rain Light Rain Showers
2:30 AM 50.0 °F - 48.2 °F 94% 29.95 in 6.2 mi WNW 13.4 mph - N/A   Mostly Cloudy
3:00 AM 50.0 °F - 46.4 °F 87% 29.95 in 6.2 mi WNW 11.2 mph 22.4 mph N/A   Scattered Clouds
3:30 AM 48.2 °F - 44.6 °F 87% 29.95 in 6.2 mi WNW 15.7 mph - N/A   Scattered Clouds
4:00 AM 48.2 °F - 44.6 °F 87% 29.98 in 6.2 mi WNW 8.9 mph - N/A   Scattered Clouds
4:30 AM 48.2 °F - 44.6 °F 87% 29.98 in 6.2 mi WNW 8.9 mph - N/A   Mostly Cloudy
5:00 AM 46.4 °F 41.2 °F 44.6 °F 93% 29.98 in 6.2 mi WNW 11.2 mph - N/A   Mostly Cloudy
5:30 AM 48.2 °F - 44.6 °F 87% 29.98 in 6.2 mi WNW 6.7 mph - N/A   Mostly Cloudy
6:00 AM 49 °F - 46 °F 84% 30.01 in 6 mi West 4.5 mph - -  
6:00 AM 48.2 °F - 44.6 °F 87% 29.98 in 6.2 mi West 4.5 mph - N/A   Mostly Cloudy
6:30 AM 48.2 °F - 44.6 °F 87% 30.01 in 6.2 mi West 6.7 mph - N/A   Overcast
7:00 AM 48.2 °F - 44.6 °F 87% 30.01 in 6.2 mi WNW 8.9 mph - N/A   Mostly Cloudy
7:30 AM 48.2 °F - 42.8 °F 82% 30.04 in 6.2 mi NW 15.7 mph - N/A   Mostly Cloudy
8:00 AM 48.2 °F - 42.8 °F 82% 30.04 in 6.2 mi NW 15.7 mph - N/A   Mostly Cloudy
8:30 AM 48.2 °F - 39.2 °F 71% 30.04 in 6.2 mi NW 17.9 mph - N/A   Mostly Cloudy
9:00 AM 48 °F - 40 °F 65% 30.08 in 6 mi NNW 4.5 mph - -   Mostly Cloudy
9:00 AM 48.2 °F - 39.2 °F 71% 30.04 in 6.2 mi NW 11.2 mph 22.4 mph N/A   Mostly Cloudy
9:30 AM 48.2 °F - 39.2 °F 71% 30.06 in 6.2 mi NW 8.9 mph 20.1 mph N/A   Scattered Clouds
10:30 AM 48.2 °F - 37.4 °F 66% 30.06 in 6.2 mi NW 13.4 mph 24.6 mph N/A   Scattered Clouds
11:00 AM 48.2 °F - 37.4 °F 66% 30.06 in - NW 8.9 mph 20.1 mph N/A   Clear
11:30 AM 48.2 °F - 37.4 °F 66% 30.06 in - NW 8.9 mph 20.1 mph N/A   Clear
12:00 PM 48 °F - 36 °F 54% 30.11 in 6 mi WNW 6.7 mph - -   Partly Cloudy
12:00 PM 48.2 °F - 35.6 °F 62% 30.06 in - NW 13.4 mph - N/A   Clear
12:30 PM 48.2 °F - 35.6 °F 62% 30.09 in 6.2 mi NW 13.4 mph - N/A   Scattered Clouds
1:30 PM 50.0 °F - 35.6 °F 58% 30.09 in - WNW 11.2 mph - N/A   Clear
2:00 PM 48.2 °F - 35.6 °F 62% 30.09 in - WNW 13.4 mph - N/A   Clear
2:30 PM 48.2 °F - 35.6 °F 62% 30.09 in 6.2 mi WNW 11.2 mph - N/A   Partly Cloudy
3:00 PM 48 °F - 35 °F 51% 30.12 in 6 mi West 6.7 mph - -   Mostly Cloudy
3:30 PM 46.4 °F 42.0 °F 35.6 °F 66% 30.09 in 6.2 mi WNW 8.9 mph - N/A   Partly Cloudy
4:00 PM 44.6 °F 39.8 °F 35.6 °F 71% 30.09 in 6.2 mi WNW 8.9 mph - N/A   Partly Cloudy
4:30 PM 42.8 °F 37.6 °F 35.6 °F 76% 30.09 in - WNW 8.9 mph - N/A   Clear
5:30 PM 41.0 °F 35.4 °F 33.8 °F 76% 30.12 in 6.2 mi WNW 8.9 mph - N/A   Partly Cloudy
6:00 PM 44 °F - 34 °F 57% 30.15 in 6 mi WNW 6.7 mph - -  
6:00 PM 42.8 °F 38.7 °F 33.8 °F 70% 30.12 in 6.2 mi WNW 6.7 mph - N/A   Scattered Clouds
6:30 PM 42.8 °F 36.7 °F 33.8 °F 70% 30.12 in 6.2 mi NW 11.2 mph - N/A   Scattered Clouds
7:00 PM 42.8 °F 38.7 °F 33.8 °F 70% 30.12 in 6.2 mi WNW 6.7 mph - N/A   Scattered Clouds
7:30 PM 42.8 °F 37.6 °F 33.8 °F 70% 30.12 in 6.2 mi NW 8.9 mph - N/A   Scattered Clouds
8:00 PM 42.8 °F 37.6 °F 33.8 °F 70% 30.12 in 6.2 mi NW 8.9 mph - N/A   Scattered Clouds
8:30 PM 42.8 °F 37.6 °F 33.8 °F 70% 30.12 in 6.2 mi NW 8.9 mph - N/A   Scattered Clouds
9:00 PM 42 °F - 33 °F 61% 30.16 in 6 mi West 4.5 mph - -   Mostly Cloudy
9:00 PM 41.0 °F 33.6 °F 32.0 °F 70% 30.12 in 6.2 mi WNW 13.4 mph - N/A   Scattered Clouds
9:30 PM 37.4 °F 32.2 °F 30.2 °F 75% 30.12 in 6.2 mi NW 6.7 mph - N/A   Scattered Clouds
10:00 PM 37.4 °F 32.2 °F 32.0 °F 81% 30.12 in 6.2 mi WNW 6.7 mph - N/A   Scattered Clouds
10:30 PM 37.4 °F 32.2 °F 30.2 °F 75% 30.12 in - WNW 6.7 mph - N/A   Clear
11:00 PM 37.4 °F 33.9 °F 30.2 °F 75% 30.12 in - West 4.5 mph - N/A   Clear
11:30 PM 35.6 °F 31.8 °F 30.2 °F 81% 30.12 in 6.2 mi West 4.5 mph - N/A   Scattered Clouds